星链-30444 (STARLINK-30444 )

导读 | 星芒AI

STARLINK-30444 是 SpaceX 星链计划中的一颗低轨通信卫星,属于第 11 批组网卫星(Batch 11B)。该卫星于 2023 年 9 月发射,运行在约 550 公里的轨道高度,旨在为全球用户提供高速互联网服务。作为星链星座的一部分,它支持全球覆盖、低延迟和高带宽的通信能力,助力偏远地区接入互联网。该卫星采用 SpaceX 自主设计的 v1.5 代星链卫星平台,具备自主变轨和激光通信能力。

基本信息
目录编号:
57871
目录名称:
STARLINK-30444
国际标识:
2023-144H
轨道中心:
EARTH
卫星名称:
星链-30444
卫星全名:
星链-30444 (STARLINK-30444 )
卫星状态:
在轨 (已飞行825 天)
发射日期:
2023-09-16 UTC
国别 :
美国 (US)
星等 :
--
轨道信息
数据来源 国际轨道数据
星历时间: 2025-12-19T06:51:16+0800
7小时前
查看轨道信息
半长轴: 6937.176km
偏心率: 0.0001779
轨道倾角: 43.004°
近地点辐角 290.094°
升交点赤经 6.352°
平近点角 69.971°
近地点: 557.806km
远地点: 560.276km
周期: 95.837分钟
每日圈数: 15.025494
详细信息
固有亮度:
5
最大亮度:
0.3
卫星平台:
Starlink v2.0 mini
覆盖范围:
全球
运营商:
太空探索技术公司
运营商所在国:
美国
制造商(研发单位):
太空探索技术公司
制造商所在国:
美国
使用方式:
暂无
卫星简介
星链(Starlink)计划是由太空探索技术公司(SpaceX)提出的一个巨型低轨卫星互联网星座项目,计划在2019年至2024年间在太空搭建由约1.2万颗卫星组成的“星链”网络,其中1584颗将部署在地球上空550千米处的近地轨道,并从2020年开始工作。该卫星仍在工作。
2D轨道图
3D轨道图
轨道高度分析图
轨道倾角分析图
轨道综合分析图
查看轨道综合分析图